Showing default

COSMOS 2425 (GLONASS), 29670

Orbit data source: Space-Track

COSMOS 2425 (GLONASS), 29670 is a Commonwealth of Independent States-origin payload satellite in MEO that was launched on Mon, 25 Dec 2006 UTC via a PROTON-K/DM-2 launch vehicle from the Tyuratam Missile And Space Complex (TTMTR). Payload-class satellites include a variety of spacecraft equipped with specific instruments for various scientific and technological missions. These include communications satellites like Starlink; space stations such as the ISS; scientific satellites like the Hubble; Earth observation satellites from companies like Planet Labs, Umbra, and HawkEye 360; GPS; miniature CubeSats for education and research; and military/defense satellites.

Loading next visibility...
Identifier
29670, 2006-062A
Orbit
MEO
Country
Flag of CISCIS
Related business
Manufacturer
Resehetnev ISS
Mission
Non-operational Defense Navigation
Bus & Motor
URAGAN, Unknown motor
Mass
1,450 kg wet, ~1,200 kg dry
Launch date (UTC)
2006-12-25 (19 years ago)
Launch vehicle
PROTON-K/DM-2
Launch site
Tyuratam Missile And Space Complex (TTMTR)
Object type
Payload
Rocket body
Debris
Shape & HBR
Cyl + 1 Arm + 2 Pan, 3.9 m
Radar Cross Section
8.145 m², Large (>1 m²)

Expand to show TLE details & history
Last TLE update: 2 days ago

TLE from 2 days ago
0 COSMOS 2425 (GLONASS)
1 29670U 06062A   25303.34787448  .00000015  00000-0  00000-0 0  9992
2 29670  64.7048 201.9292 0022355 358.0699 177.3032  2.13117253146680
Epoch: 2025-10-30T08:20Z
TLE epoch observation values (Epoch: 2025-10-30T08:20:56.355Z)
Latitude
4.17916°
Longitude
-144.18981°
Altitude
19,185.756 km
Speed
3.944 km/s
True Right ascension
01h 19m 48s
True Declination
4° 10' 20"
Sunlit
Object was in daylight at epoch
Visualization orbit readout
Latitude
Unknown
Longitude
Unknown
Altitude
Unknown
Speed
Unknown
Apparent Right ascension
Unknown
Apparent Declination
Unknown
Sunlit
N/A
Visualization observer readout
Local Sidereal Time
22:55:27
Azimuth
Unknown
Elevation
Unknown
Doppler factor
Unknown
Orbital elements
Apogee altitude
19,185.315 km
Perigee altitude
19,071.276 km
Semi-major axis
25,506.432 km
Eccentricity
0.00224
Inclination
64.7048°
RAAN
201.9292°
Arg. of periapsis
358.0699°
True anomaly
177.31522°
Mean anomaly
177.3032°
Eccentric anomaly
177.30921°
Mean motion
0.53281 °/min
Orbital period
675.67 mins
BSTAR
0
Loading maneuver chart data...
Computing Atmospheric mass density...
Loading historical data...
Loading historical data...
Loading historical data...
Loading historical data...
Loading historical data...
Loading historical data...
Loading historical data...

Documentation

Showing up to 5 results
|